SL-16 R/B, 17590

Orbit data source: Space-Track

SL-16 R/B, 17590 is space debris in LEO originally from a launch on Wed, 18 Mar 1987 UTC launched from the Tyuratam Missile And Space Complex (TTMTR). Debris objects in space refer to the collection of defunct objects orbiting the Earth. Examples of debris include non-operational satellites, rocket bodies, and fragments generated from explosions, collisions, or faulty payload assembly.

Loading next visibility...
Identifier
17590, 1987-027B
Orbit
LEO
Country
Flag of CISCIS
Related business
Manufacturer
Yuzhnoe
Mission
Spacecraft
Bus & Motor
11S772, Unknown motor
Mass
9,000 kg wet, 9,000 kg dry
Launch date (UTC)
1987-03-18 (39 years ago)
Launch vehicle
Unknown
Launch site
Tyuratam Missile And Space Complex (TTMTR)
Object type
Payload
Rocket body
Debris
Shape & HBR
Cyl, 5.6 m
Radar Cross Section
37.829 m², Large (>1 m²)

Expand to show TLE details & history
Last TLE update: 11 hours ago

TLE from 11 hours ago
0 SL-16 R/B
1 17590U 87027B   26255.10494890 -.00000158  00000-0 -54739-4 0  9999
2 17590  71.0005 243.6649 0006156 218.5704 141.4981 14.17183449 41753
Epoch: 2026-09-12T02:31Z
TLE epoch observation values (Epoch: 2026-09-12T02:31:07.584Z)
Latitude
-0.00002°
Longitude
-145.23544°
Altitude
840.773 km
Speed
7.431 km/s
True Right ascension
16h 14m 39s
True Declination
0° 00' 00"
Sunlit
Object was in daylight at epoch
Visualization orbit readout
Latitude
Unknown
Longitude
Unknown
Altitude
Unknown
Speed
Unknown
Apparent Right ascension
Unknown
Apparent Declination
Unknown
Sunlit
N/A
Visualization observer readout
Local Sidereal Time
06:07:58
Azimuth
Unknown
Elevation
Unknown
Doppler factor
Unknown
Orbital elements
Apogee altitude
837.256 km
Perigee altitude
828.378 km
Semi-major axis
7,210.954 km
Eccentricity
0.00062
Inclination
71.0005°
RAAN
243.6649°
Arg. of periapsis
218.5704°
True anomaly
141.54199°
Mean anomaly
141.4981°
Eccentric anomaly
141.52005°
Mean motion
3.54449 °/min
Orbital period
101.57 mins
BSTAR
-0.000054739
Loading maneuver chart data...
Computing Atmospheric mass density...
Loading historical data...
Loading historical data...
Loading historical data...
Loading historical data...
Loading historical data...
Loading historical data...
Loading historical data...

Documentation

Showing up to 5 results
|